Birchwood, AK

4:04 AM AKDT on August 18, 2017 (GMT -0800)
Birchwood

Weather History for PABV - July, 2013

Change the Weather History Date:

Monday, July 22, 2013

  Actual Average Record
Temperature  
Mean Temperature 66 °F -  
Max Temperature 80 °F 63 °F 80 °F (2013)
Min Temperature 53 °F 49 °F 46 °F (1999)
Cooling Degree Days 2    
Growing Degree Days 16 (Base 50)    
Moisture  
Dew Point 47 °F    
Average Humidity 55    
Maximum Humidity 77    
Minimum Humidity 30    
Precipitation  
Precipitation 0.00 in - - ()
Sea Level Pressure  
Sea Level Pressure 30.03 in    
Wind  
Wind Speed 4 mph (SW)    
Max Wind Speed 8 mph    
Max Gust Speed -    
Visibility 10 miles    
Events      
Averages and records for this station are not official NWS values.
T = Trace of Precipitation, MM = Missing Value Source: NWS Daily Summary

Daily Weather History Graph

Daily Weather History Graph

Search for Another Location

Airport or City:

Trip Planner

Search our weather history database for the weather conditions in past years. The results will help you decide how hot, cold, wet, or windy it might be!

Date:

Astronomy

Jul. 22, 2013 Rise Set
Actual Time 5:04 AM AKDT 11:02 PM AKDT
Civil Twilight 3:43 AM AKDT 12:21 AM AKDT
Nautical Twilight Sun does not set Sun does not set
Astronomical Twilight Sun does not set Sun does not set
Moon 10:15 PM AKDT (7/22) 5:40 AM AKDT (7/22)
Length of Visible Light 20h 37m
Length of Day
17h 57m
Full, 100% of the Moon is Illuminated
Jul 22
Full
Jul 29
Last Quarter
Aug 6
New
Aug 14
First Quarter
Aug 20
Full

Hourly Weather History & Observations

Time (AKDT) Temp. Dew Point Humidity Pressure Visibility Wind Dir Wind Speed Gust Speed Precip Events Conditions
12:16 AM 62.6 °F 48.2 °F 59% 29.98 in 10.0 mi Calm Calm - N/A   Unknown
12:36 AM 60.8 °F 48.2 °F 63% 29.98 in 10.0 mi Calm Calm - N/A   Unknown
12:56 AM 60.8 °F 48.2 °F 63% 29.99 in 10.0 mi SE 3.5 mph - N/A   Unknown
1:16 AM 60.8 °F 48.2 °F 63% 29.99 in 10.0 mi Calm Calm - N/A   Unknown
1:36 AM 59.0 °F 46.4 °F 63% 29.99 in 10.0 mi Calm Calm - N/A   Unknown
1:56 AM 57.2 °F 48.2 °F 72% 30.00 in 10.0 mi SE 4.6 mph - N/A   Unknown
2:16 AM 59.0 °F 46.4 °F 63% 30.00 in 10.0 mi Calm Calm - N/A   Unknown
2:36 AM 57.2 °F 48.2 °F 72% 30.01 in 10.0 mi SSE 3.5 mph - N/A   Unknown
2:56 AM 57.2 °F 48.2 °F 72% 30.00 in 10.0 mi SSE 4.6 mph - N/A   Unknown
3:16 AM 57.2 °F 46.4 °F 67% 30.01 in 10.0 mi SSE 3.5 mph - N/A   Unknown
3:36 AM 57.2 °F 46.4 °F 67% 30.01 in 10.0 mi South 5.8 mph - N/A   Unknown
3:56 AM 55.4 °F 46.4 °F 72% 30.01 in 10.0 mi SSW 6.9 mph - N/A   Unknown
4:16 AM 55.4 °F 46.4 °F 72% 30.02 in 10.0 mi SSW 3.5 mph - N/A   Unknown
4:36 AM 55.4 °F 46.4 °F 72% 30.02 in 10.0 mi SSW 5.8 mph - N/A   Unknown
4:56 AM 55.4 °F 46.4 °F 72% 30.02 in 10.0 mi South 4.6 mph - N/A   Unknown
5:16 AM 53.6 °F 46.4 °F 77% 30.02 in 10.0 mi SSW 6.9 mph - N/A   Unknown
5:36 AM 53.6 °F 46.4 °F 77% 30.03 in 10.0 mi SSW 5.8 mph - N/A   Clear
5:56 AM 53.6 °F 46.4 °F 77% 30.03 in 10.0 mi South 6.9 mph - N/A   Clear
6:16 AM 55.4 °F 46.4 °F 72% 30.03 in 10.0 mi SSW 6.9 mph - N/A   Clear
6:36 AM 55.4 °F 46.4 °F 72% 30.04 in 10.0 mi SSW 6.9 mph - N/A   Clear
6:56 AM 55.4 °F 46.4 °F 72% 30.04 in 10.0 mi SSW 8.1 mph - N/A   Clear
7:16 AM 57.2 °F 46.4 °F 67% 30.04 in 10.0 mi SSW 6.9 mph - N/A   Clear
7:36 AM 57.2 °F 46.4 °F 67% 30.05 in 10.0 mi SSW 5.8 mph - N/A   Clear
7:56 AM 59.0 °F 46.4 °F 63% 30.05 in 10.0 mi SSW 5.8 mph - N/A   Clear
8:16 AM 60.8 °F 46.4 °F 59% 30.05 in 10.0 mi SW 5.8 mph - N/A   Clear
8:36 AM 60.8 °F 46.4 °F 59% 30.05 in 10.0 mi SW 3.5 mph - N/A   Clear
8:56 AM 62.6 °F 46.4 °F 55% 30.05 in 10.0 mi WSW 5.8 mph - N/A   Clear
9:16 AM 62.6 °F 46.4 °F 55% 30.06 in 10.0 mi SW 5.8 mph - N/A   Clear
9:36 AM 62.6 °F 46.4 °F 55% 30.06 in 10.0 mi WSW 4.6 mph - N/A   Clear
9:56 AM 64.4 °F 46.4 °F 52% 30.06 in 10.0 mi SW 5.8 mph - N/A   Clear
10:16 AM 64.4 °F 46.4 °F 52% 30.06 in 10.0 mi SW 4.6 mph - N/A   Clear
10:36 AM 64.4 °F 46.4 °F 52% 30.06 in 10.0 mi West 4.6 mph - N/A   Clear
10:56 AM 66.2 °F 46.4 °F 49% 30.06 in 10.0 mi West 5.8 mph - N/A   Clear
11:16 AM 68.0 °F 46.4 °F 46% 30.06 in 10.0 mi WSW 4.6 mph - N/A   Clear
11:36 AM 69.8 °F 46.4 °F 43% 30.06 in 10.0 mi WSW 3.5 mph - N/A   Clear
11:56 AM 69.8 °F 46.4 °F 43% 30.06 in 10.0 mi WSW 4.6 mph - N/A   Clear
12:16 PM 69.8 °F 46.4 °F 43% 30.06 in 10.0 mi WSW 3.5 mph - N/A   Clear
12:36 PM 71.6 °F 48.2 °F 43% 30.05 in 10.0 mi West 4.6 mph - N/A   Clear
12:56 PM 71.6 °F 46.4 °F 41% 30.05 in 10.0 mi WSW 5.8 mph - N/A   Unknown
1:16 PM 73.4 °F 44.6 °F 36% 30.05 in 10.0 mi WSW 3.5 mph - N/A   Unknown
1:36 PM 73.4 °F 48.2 °F 41% 30.05 in 10.0 mi West 4.6 mph - N/A   Unknown
1:56 PM 73.4 °F 48.2 °F 41% 30.05 in 10.0 mi WSW 4.6 mph - N/A   Unknown
2:16 PM 75.2 °F 46.4 °F 36% 30.05 in 10.0 mi West 4.6 mph - N/A   Unknown
2:36 PM 75.2 °F 48.2 °F 38% 30.05 in 10.0 mi WSW 4.6 mph - N/A   Unknown
2:56 PM 77.0 °F 46.4 °F 34% 30.04 in 10.0 mi West 4.6 mph - N/A   Unknown
3:16 PM 78.8 °F 46.4 °F 32% 30.05 in 10.0 mi West 4.6 mph - N/A   Unknown
3:36 PM 78.8 °F 48.2 °F 34% 30.05 in 10.0 mi West 6.9 mph - N/A   Unknown
3:56 PM 78.8 °F 46.4 °F 32% 30.04 in 10.0 mi West 4.6 mph - N/A   Unknown
4:16 PM 78.8 °F 50.0 °F 36% 30.04 in 10.0 mi West 5.8 mph - N/A   Unknown
4:36 PM 78.8 °F 48.2 °F 34% 30.04 in 10.0 mi West 5.8 mph - N/A   Unknown
4:56 PM 80.6 °F 46.4 °F 30% 30.04 in 10.0 mi West 6.9 mph - N/A   Unknown
5:16 PM 80.6 °F 48.2 °F 32% 30.03 in 10.0 mi WSW 4.6 mph - N/A   Unknown